Temp
86 86 87 86 86 86 86 87 88 88 86 89 88 88 87 88 89 89 90 88 88 87 87 85 85 84 87 86 84 84 83 84 85 86 85 86 86 88 90 90 89 86
86 86 86 87 85 85 86 88 88 88 87 86 88 88 88 88 91 90 89 89 89 88 87 88 87 86 86 87 85 84 82 83 83 89 86 86 86 89 90 90 90 89
87 87 88 88 89 89 90 89 88 89 89 91 90 88 91 91 90 89 88 89 89 91 87 87 87 87 88 86 85 86 85 83 83 87 86 86 87 87 87 91 88 89
86 87 89 90 90 90 91 89 89 88 90 90 91 92 92 93 90 90 88 88 88 88 89 89 88 89 88 88 85 86 86 85 87 86 85 86 86 88 89 88 90 90
88 88 89 90 91 90 90 91 91 91 91 90 92 91 89 88 88 91 89 89 87 89 88 88 88 88 87 86 86 85 87 87 87 85 83 83 85 87 90 89 87 88
88 87 88 90 90 90 92 92 92 92 92 92 92 93 92 92 91 91 90 90 91 91 92 91 90 91 90 88 86 86 87 88 88 86 85 84 87 90 92 91 88 88
89 89 90 92 93 93 92 92 92 92 93 94 92 92 92 92 91 90 89 90 91 89 92 89 87 88 89 87 85 85 86 86 86 85 85 86 85 86 90 90 88 87
90 90 90 91 93 93 92 93 93 92 93 93 93 92 92 92 91 93 92 91 91 91 89 92 88 86 91 90 87 86 87 91 90 85 84 85 85 85 86 90 89 87
92 91 91 91 92 93 93 94 94 94 94 93 94 93 92 92 92 92 90 90 90 89 88 90 87 90 90 90 88 87 86 89 92 86 85 85 86 85 87 87 88 87
91 92 92 92 92 93 93 94 95 94 93 93 93 94 92 90 90 91 90 88 90 89 89 88 89 90 91 91 89 88 87 86 87 87 86 86 87 88 88 88 88 86
92 93 92 92 92 93 93 94 94 95 93 92 93 94 94 92 89 90 89 89 92 91 90 88 90 91 89 91 91 91 89 89 88 88 89 88 88 87 88 87 86 87
92 92 92 92 92 93 94 94 94 95 94 93 93 92 92 93 91 91 91 89 90 91 92 90 89 90 88 89 91 92 91 90 89 88 89 89 88 87 88 88 88 87
92 92 92 93 93 93 95 94 94 95 94 93 93 93 93 93 93 90 90 91 90 92 93 90 90 92 88 88 90 91 91 90 91 90 89 89 88 88 89 88 89 89
89 92 93 91 92 91 92 95 95 95 94 93 93 92 93 94 93 92 92 92 91 92 91 91 90 89 88 88 89 90 90 90 88 88 89 88 89 87 88 88 88 88
87 88 90 91 89 89 91 92 94 94 94 93 91 92 95 94 94 94 92 91 91 91 91 92 92 91 90 90 88 88 89 90 89 88 88 87 87 89 88 87 88 88
85 87 87 89 89 88 87 89 92 94 95 94 93 93 91 90 91 92 92 91 90 90 91 92 92 93 90 86 87 89 88 91 91 88 87 87 86 86 87 86 87 88
83 84 86 86 86 87 87 88 89 92 92 90 91 92 89 87 89 91 91 90 90 90 91 92 93 93 84 78 78 82 90 89 88 85 86 86 86 83 84 85 86 87
83 84 84 85 85 86 86 86 89 88 87 88 89 88 87 89 88 88 89 90 87 89 88 90 89 88 75 76 77 78 85 88 88 86 87 86 87 87 86 85 85 85
83 83 83 83 84 85 86 86 86 86 87 87 87 88 89 86 85 88 88 89 88 87 88 88 89 77 71 75 74 75 79 87 88 87 86 86 86 86 85 85 84 84
81 81 82 83 83 84 85 86 86 85 87 88 87 87 86 86 87 87 87 85 86 86 84 86 86 78 69 72 73 73 75 80 86 87 88 86 84 85 85 84 82 83
80 80 80 82 82 82 82 82 84 85 85 85 86 85 84 84 85 85 85 86 86 88 88 89 91 71 68 70 70 71 73 80 86 88 88 86 86 85 84 83 83 83
78 78 79 80 81 81 80 80 80 79 79 80 80 83 86 86 85 85 85 85 85 86 86 86 88 66 68 68 68 69 71 83 85 84 84 85 86 85 85 84 84 83
78 77 78 79 79 79 78 78 78 77 78 78 78 78 79 83 84 85 85 85 85 85 85 84 87 71 66 66 67 67 73 83 83 84 84 83 84 85 85 85 83 81
76 76 76 78 78 78 78 77 77 77 77 77 75 75 76 79 83 84 85 85 85 85 87 86 88 78 65 65 66 66 77 84 82 82 82 83 83 85 83 78 78 80
75 75 75 77 77 77 77 77 76 76 77 76 75 75 75 78 80 82 84 84 85 85 88 86 87 75 62 64 64 64 75 83 82 82 81 81 82 78 77 76 75 77
76 75 75 75 76 77 77 76 77 76 75 75 74 74 75 75 76 79 81 83 85 84 86 86 81 74 69 61 63 63 67 79 83 82 81 81 79 77 75 74 73 74
MSLP
1012.19 1012.23 1012.43 1012.63 1012.83 1012.87 1013.03 1013.23 1013.19 1013.35 1013.47 1013.47 1013.83 1013.71 1013.71 1013.59 1013.47 1013.59 1013.91 1014.11 1014.31 1014.55 1014.71 1014.87 1014.95 1015.11 1015.15 1015.23 1015.35 1015.51 1015.79 1015.87 1015.79 1015.83 1016.03 1016.15 1016.31 1016.23 1016.23 1016.15 1016.15 1016.47
1012.23 1012.19 1012.19 1012.31 1012.51 1012.55 1012.71 1012.71 1012.83 1012.95 1013.15 1013.11 1013.19 1013.31 1013.23 1013.31 1013.31 1013.39 1013.75 1013.99 1014.11 1014.35 1014.39 1014.51 1014.67 1014.83 1014.95 1015.03 1015.23 1015.47 1015.71 1015.83 1016.07 1015.47 1015.95 1016.15 1016.11 1015.95 1015.99 1015.95 1015.99 1016.07
1012.11 1012.19 1012.23 1012.35 1012.43 1012.47 1012.39 1012.43 1012.43 1012.51 1012.79 1012.75 1012.75 1012.95 1013.15 1013.11 1013.31 1013.31 1013.55 1013.71 1013.99 1013.99 1014.23 1014.31 1014.47 1014.55 1014.59 1014.75 1014.91 1015.15 1015.43 1015.71 1015.87 1015.51 1015.63 1015.95 1015.87 1015.99 1015.91 1015.71 1015.99 1016.11
1012.03 1011.99 1012.03 1012.03 1011.95 1012.15 1012.03 1012.23 1012.27 1012.35 1012.35 1012.67 1012.71 1012.67 1012.71 1012.83 1013.03 1013.31 1013.35 1013.51 1013.75 1013.87 1013.91 1014.07 1014.27 1014.35 1014.47 1014.51 1014.79 1015.03 1015.11 1015.27 1015.23 1015.27 1015.67 1015.79 1015.75 1015.67 1015.71 1015.67 1015.71 1015.83
1011.75 1011.79 1011.67 1011.67 1011.55 1011.63 1011.63 1011.95 1012.15 1012.23 1012.23 1012.35 1012.23 1012.23 1012.55 1012.63 1012.95 1013.15 1013.27 1013.43 1013.51 1013.67 1013.75 1013.95 1013.99 1014.19 1014.31 1014.47 1014.71 1015.07 1014.99 1015.23 1015.15 1015.27 1015.63 1015.91 1015.75 1015.67 1015.51 1015.47 1015.67 1015.95
1011.39 1011.43 1011.39 1011.47 1011.39 1011.47 1011.67 1011.75 1011.83 1011.95 1011.95 1012.07 1012.15 1011.91 1012.23 1012.31 1012.63 1012.83 1013.11 1013.35 1013.39 1013.47 1013.51 1013.67 1013.91 1013.91 1014.03 1014.31 1014.59 1014.83 1014.87 1015.03 1014.99 1015.11 1015.47 1015.75 1015.59 1015.31 1015.31 1015.27 1015.43 1015.67
1011.27 1011.31 1011.35 1011.19 1011.19 1011.19 1011.47 1011.51 1011.51 1011.47 1011.59 1011.47 1011.75 1011.91 1011.95 1012.27 1012.47 1012.63 1012.83 1013.03 1013.19 1013.35 1013.31 1013.47 1013.71 1013.83 1013.71 1013.99 1014.35 1014.67 1014.67 1014.67 1014.75 1014.95 1015.31 1015.43 1015.43 1015.47 1015.19 1015.19 1015.39 1015.71
1010.95 1010.99 1011.03 1011.03 1011.15 1011.15 1011.35 1011.31 1011.35 1011.35 1011.27 1011.31 1011.63 1011.71 1011.71 1012.11 1012.35 1012.35 1012.47 1012.75 1012.99 1013.15 1013.15 1013.11 1013.39 1013.63 1013.59 1013.71 1014.19 1014.51 1014.63 1014.47 1014.59 1014.95 1015.23 1015.35 1015.39 1015.59 1015.43 1015.31 1015.31 1015.63
1010.59 1010.79 1010.83 1010.91 1011.07 1011.07 1011.19 1011.07 1011.03 1011.15 1011.03 1011.39 1011.39 1011.55 1011.51 1011.75 1012.07 1012.19 1012.23 1012.43 1012.71 1012.83 1013.03 1013.03 1013.19 1013.43 1013.47 1013.59 1013.87 1014.23 1014.59 1014.55 1014.31 1014.83 1015.19 1015.47 1015.55 1015.51 1015.39 1015.31 1015.55 1015.63
1010.51 1010.47 1010.63 1010.75 1010.91 1010.83 1011.03 1010.91 1010.83 1010.95 1010.99 1011.27 1011.27 1011.15 1011.55 1011.63 1011.71 1011.99 1012.15 1012.31 1012.47 1012.63 1012.83 1012.95 1013.07 1013.19 1013.31 1013.35 1013.59 1013.87 1014.27 1014.51 1014.35 1014.47 1014.79 1014.99 1015.11 1015.11 1015.11 1015.19 1015.35 1015.55
1010.27 1010.27 1010.47 1010.55 1010.59 1010.51 1010.67 1010.71 1010.67 1010.71 1010.87 1011.23 1011.27 1011.19 1011.19 1011.47 1011.71 1011.79 1012.11 1012.27 1012.47 1012.59 1012.67 1012.79 1012.83 1012.91 1013.19 1013.35 1013.35 1013.47 1013.83 1014.11 1014.23 1014.23 1014.31 1014.47 1014.59 1014.75 1014.83 1014.95 1015.23 1015.39
1010.07 1010.07 1010.19 1010.31 1010.39 1010.31 1010.35 1010.35 1010.43 1010.55 1010.71 1010.95 1011.07 1011.35 1011.27 1011.27 1011.59 1011.79 1011.95 1012.27 1012.39 1012.35 1012.39 1012.47 1012.55 1012.67 1012.99 1013.23 1013.27 1013.27 1013.47 1013.67 1013.83 1013.99 1014.11 1014.23 1014.39 1014.59 1014.71 1014.75 1014.91 1014.99
1009.79 1009.83 1009.83 1009.87 1010.03 1010.07 1009.91 1009.99 1010.19 1010.35 1010.55 1010.87 1010.95 1011.11 1011.35 1011.47 1011.51 1011.83 1011.91 1012.11 1012.23 1012.23 1012.27 1012.31 1012.43 1012.55 1012.75 1012.99 1013.11 1013.11 1013.23 1013.35 1013.55 1013.79 1013.95 1014.07 1014.15 1014.27 1014.27 1014.35 1014.55 1014.71
1009.67 1009.39 1009.47 1009.55 1009.55 1009.71 1009.79 1009.75 1009.87 1009.95 1010.15 1010.43 1010.63 1011.03 1011.23 1011.23 1011.47 1011.71 1011.83 1011.87 1012.03 1012.19 1012.19 1012.11 1012.31 1012.55 1012.71 1012.83 1012.91 1013.03 1013.11 1013.27 1013.55 1013.75 1013.91 1014.03 1014.03 1014.07 1014.07 1014.23 1014.35 1014.51
1009.59 1009.43 1009.23 1009.27 1009.43 1009.55 1009.75 1009.79 1009.75 1009.79 1009.87 1010.07 1010.43 1010.79 1010.83 1010.91 1011.07 1011.23 1011.71 1011.91 1011.91 1012.03 1012.11 1012.07 1012.19 1012.47 1012.51 1012.67 1012.87 1012.99 1012.95 1013.15 1013.39 1013.63 1013.71 1013.91 1013.99 1013.99 1013.95 1014.07 1014.19 1014.27
1009.79 1009.59 1009.47 1009.31 1009.43 1009.59 1009.71 1009.75 1009.75 1009.75 1009.79 1010.03 1010.23 1010.43 1010.63 1010.79 1010.95 1011.11 1011.51 1011.79 1012.03 1012.07 1012.07 1012.15 1012.15 1012.03 1012.15 1012.31 1012.43 1012.67 1012.87 1012.91 1012.91 1013.07 1013.27 1013.55 1013.87 1014.03 1014.07 1014.07 1014.19 1014.27
1009.91 1009.83 1009.67 1009.67 1009.55 1009.55 1009.59 1009.67 1009.83 1009.79 1009.79 1009.99 1010.15 1010.23 1010.51 1010.79 1010.99 1011.23 1011.43 1011.79 1012.07 1012.11 1012.11 1012.07 1011.99 1011.99 1012.19 1012.35 1012.43 1012.51 1012.63 1012.83 1013.03 1013.31 1013.31 1013.51 1013.79 1014.11 1014.35 1014.27 1014.19 1014.23
1009.87 1009.83 1009.83 1009.79 1009.67 1009.71 1009.59 1009.59 1009.67 1009.91 1010.07 1010.11 1010.27 1010.59 1010.59 1010.67 1011.15 1011.35 1011.31 1011.51 1011.83 1012.03 1012.31 1012.07 1011.95 1011.87 1011.91 1011.99 1012.19 1012.43 1012.51 1012.67 1012.91 1013.31 1013.43 1013.55 1013.71 1013.87 1013.99 1014.11 1014.23 1014.31
1009.67 1009.75 1009.75 1009.79 1009.75 1009.67 1009.51 1009.51 1009.71 1009.95 1010.15 1010.27 1010.39 1010.23 1010.43 1010.83 1011.11 1011.27 1011.47 1011.39 1011.75 1012.11 1012.15 1011.95 1011.99 1011.95 1011.95 1011.91 1012.15 1012.31 1012.39 1012.51 1012.75 1012.99 1013.31 1013.43 1013.55 1013.67 1013.83 1013.95 1014.07 1014.31
1009.47 1009.67 1009.75 1009.71 1009.63 1009.67 1009.67 1009.59 1009.71 1009.99 1009.99 1009.95 1010.07 1010.19 1010.47 1010.75 1010.91 1011.19 1011.31 1011.51 1011.55 1011.71 1011.91 1011.91 1012.07 1012.11 1012.15 1012.07 1012.15 1012.23 1012.31 1012.47 1012.63 1012.83 1012.99 1013.19 1013.35 1013.47 1013.59 1013.87 1013.99 1014.19
1009.11 1009.35 1009.55 1009.43 1009.43 1009.55 1009.71 1009.87 1009.83 1009.75 1009.87 1009.99 1010.11 1010.31 1010.51 1010.63 1010.79 1011.03 1011.15 1011.31 1011.43 1011.47 1011.63 1011.71 1011.71 1011.87 1012.07 1012.11 1012.19 1012.23 1012.31 1012.51 1012.63 1012.71 1012.87 1012.99 1013.03 1013.11 1013.31 1013.47 1013.59 1013.79
1008.63 1008.83 1008.91 1008.95 1009.07 1009.27 1009.55 1009.83 1009.99 1009.99 1009.99 1010.03 1010.31 1010.39 1010.11 1010.11 1010.31 1010.51 1010.91 1011.15 1011.27 1011.43 1011.67 1011.83 1011.51 1011.55 1011.75 1011.95 1012.11 1012.27 1012.43 1012.63 1012.67 1012.91 1013.07 1013.11 1013.07 1012.95 1012.95 1013.03 1013.15 1013.39
1008.19 1008.47 1008.63 1008.63 1008.67 1008.95 1009.23 1009.43 1009.71 1009.95 1009.91 1009.79 1010.07 1010.31 1010.67 1010.51 1010.23 1010.31 1010.43 1010.79 1011.07 1011.31 1011.59 1011.75 1011.63 1011.59 1011.63 1011.83 1011.99 1012.15 1012.51 1012.59 1012.75 1012.91 1013.11 1013.23 1013.19 1012.95 1012.75 1012.71 1012.99 1013.27
1008.31 1008.51 1008.71 1008.71 1008.79 1008.87 1008.83 1008.95 1009.11 1009.39 1009.55 1009.55 1009.87 1010.11 1010.35 1010.55 1010.35 1010.19 1010.23 1010.43 1010.83 1011.11 1011.23 1011.63 1011.51 1011.55 1011.75 1011.75 1011.87 1012.15 1012.23 1012.47 1012.71 1012.95 1013.11 1013.15 1013.11 1012.87 1012.91 1013.23 1013.27 1013.35
1008.11 1008.39 1008.55 1008.63 1008.67 1008.59 1008.55 1008.71 1008.87 1009.07 1009.19 1009.43 1009.79 1010.03 1010.31 1010.39 1010.51 1010.55 1010.35 1010.35 1010.55 1010.83 1010.95 1011.31 1011.39 1011.71 1011.95 1012.15 1012.35 1012.35 1012.27 1012.27 1012.55 1012.87 1013.23 1013.19 1013.11 1013.35 1013.31 1013.43 1013.55 1013.55
1007.63 1007.91 1008.19 1008.43 1008.43 1008.51 1008.59 1008.79 1008.79 1008.95 1009.27 1009.63 1009.87 1010.03 1010.19 1010.31 1010.47 1010.71 1010.83 1010.63 1010.43 1010.75 1010.95 1011.07 1011.59 1012.07 1012.31 1012.31 1012.31 1012.47 1012.55 1012.47 1012.43 1012.83 1013.23 1013.23 1013.27 1013.43 1013.63 1013.75 1014.23 1014.35
Wind_Speed
8 8 8 8 7 7 7 7 8 8 6 8 8 6 6 6 8 7 9 6 7 4 6 6 6 5 5 4 5 4 3 2 1 2 2 3 4 6 5 4 2 2
9 8 6 8 6 7 6 7 7 7 6 6 6 6 5 4 5 4 6 7 7 8 5 7 7 7 6 5 6 5 4 3 3 4 4 5 4 5 4 4 5 2
10 9 10 10 10 11 11 9 6 6 8 8 7 6 7 7 7 4 6 6 7 8 7 6 5 5 5 5 5 4 6 5 6 6 4 5 5 5 3 4 1 5
10 10 11 11 10 11 11 9 7 5 7 7 8 9 8 9 7 8 6 8 7 6 8 7 7 7 6 5 6 5 5 5 4 3 2 3 4 4 4 4 6 3
12 11 10 11 9 9 8 10 10 9 9 8 9 8 7 6 8 9 6 6 5 7 7 7 6 7 7 5 6 5 5 5 5 4 5 4 4 4 5 4 2 6
10 8 7 8 8 8 10 9 10 11 10 11 9 7 8 6 9 8 8 9 8 9 9 10 9 8 10 7 7 6 6 7 6 5 5 5 5 5 7 7 6 3
13 11 12 10 11 9 10 9 8 9 9 9 8 7 7 7 6 7 8 8 10 8 9 8 7 7 7 7 7 6 6 4 6 7 6 5 4 5 7 4 2 1
13 12 11 9 11 10 10 10 10 8 8 7 10 7 7 10 8 9 9 9 9 9 8 9 7 6 8 6 7 6 7 7 5 3 4 4 4 5 5 5 3 2
12 12 12 12 12 10 11 11 9 10 7 9 8 9 7 7 9 9 5 8 9 7 7 6 8 9 7 6 7 8 7 8 7 7 6 7 7 5 5 4 5 4
12 11 13 13 13 11 12 11 10 9 7 7 8 7 9 6 6 8 6 4 7 6 8 7 6 9 8 7 5 8 7 6 6 6 9 9 8 8 7 6 5 5
13 13 13 13 13 11 12 12 11 10 7 8 8 7 8 8 6 7 6 5 7 7 6 8 7 8 7 7 6 5 7 8 8 6 5 5 6 4 5 4 5 6
13 13 13 14 13 13 13 12 11 10 9 9 9 8 6 6 7 7 7 6 6 7 8 6 6 5 6 7 8 8 8 9 7 6 6 6 6 7 7 7 5 3
13 12 11 12 12 12 11 11 11 12 10 9 8 8 9 8 8 7 5 7 8 9 9 6 6 7 4 6 6 6 7 6 7 7 8 6 5 5 5 3 4 5
8 10 12 9 9 8 9 10 11 11 10 10 9 9 10 10 10 11 10 9 8 9 8 7 5 6 5 5 6 7 6 4 5 5 6 6 6 6 6 5 4 3
6 6 6 8 6 6 8 9 9 9 7 7 8 9 10 11 10 10 9 10 10 8 9 9 8 8 7 8 7 7 7 7 8 9 8 6 5 5 4 3 3 3
4 5 5 3 5 6 5 7 8 8 10 10 9 10 8 7 7 7 10 9 8 8 9 10 9 8 8 11 10 7 8 8 8 7 5 3 3 3 4 3 4 2
5 4 3 4 3 4 5 6 7 8 7 6 7 7 7 5 4 8 8 9 10 9 9 11 9 8 12 13 11 10 8 7 2 2 1 2 4 3 3 3 3 4
5 5 4 3 4 4 4 5 7 7 6 4 5 7 6 7 6 5 5 6 5 7 8 9 6 6 15 15 14 15 12 4 3 3 2 3 3 4 4 3 3 4
5 5 6 5 4 4 4 4 4 6 7 5 4 4 4 5 5 5 5 4 6 7 8 6 4 1 12 15 14 13 11 8 5 4 4 3 4 3 3 1 2 4
6 6 6 5 4 3 3 3 5 5 5 6 4 3 3 4 7 7 6 5 5 5 6 5 4 6 11 13 13 13 12 10 5 5 6 5 5 5 4 3 3 3
8 7 6 6 6 5 4 1 1 3 4 4 4 4 5 4 5 5 5 6 6 5 5 7 9 13 13 13 12 13 13 10 7 6 5 4 3 4 5 6 5 5
9 10 10 9 8 7 6 5 3 2 3 2 3 4 4 5 5 6 6 7 6 7 6 7 4 14 14 15 13 13 12 7 7 5 4 5 4 4 5 5 6 7
11 12 10 10 9 9 7 7 6 4 4 3 4 3 4 5 6 6 6 7 7 6 7 7 6 11 14 15 14 15 10 6 6 5 5 5 5 4 4 3 3 4
7 8 8 10 9 9 10 8 7 5 5 6 7 7 6 5 6 6 5 6 7 8 10 8 9 8 13 14 16 15 12 8 6 5 5 5 5 6 1 6 3 4
9 9 10 9 10 9 9 10 9 8 7 6 3 4 4 3 3 6 6 6 7 7 13 12 8 3 9 9 9 12 11 6 5 5 5 6 5 3 4 4 4 4
8 9 10 10 9 6 5 5 6 7 8 7 7 7 6 5 5 3 7 6 7 8 7 9 3 4 2 7 11 10 9 4 3 4 5 3 3 2 2 4 6 4
Wind_Direction
187 175 183 173 179 183 181 181 182 184 177 179 180 190 171 189 178 179 154 173 154 160 166 161 156 171 176 169 160 150 152 213 223 153 172 202 216 239 229 212 226 174
188 179 186 179 175 173 183 187 192 185 185 173 183 175 171 181 186 163 166 157 167 171 178 167 171 174 186 174 171 165 160 172 206 202 192 207 228 242 228 236 234 205
187 182 188 188 182 185 188 188 198 189 180 189 182 166 178 185 176 179 165 175 179 179 172 173 176 188 195 169 184 177 175 183 195 216 198 195 207 225 260 244 97 261
192 190 190 194 188 189 194 188 182 205 175 194 186 180 187 179 175 187 171 186 174 186 176 181 185 185 200 179 172 195 196 192 211 200 156 209 234 243 224 235 223 193
191 195 194 200 196 189 203 183 191 193 196 185 200 176 185 171 178 178 184 185 180 190 174 182 185 183 194 169 179 194 203 186 204 187 177 206 232 236 252 263 230 212
194 194 202 205 202 193 199 195 197 190 207 179 203 186 181 182 175 179 182 186 196 201 191 189 190 200 188 177 181 191 210 204 204 196 190 202 225 226 234 224 221 226
190 190 201 203 206 195 198 204 202 197 203 189 185 204 172 190 183 187 178 188 193 201 208 180 186 200 192 182 185 187 220 207 200 188 196 211 221 251 263 278 253 220
191 187 197 199 205 199 202 205 198 211 189 215 181 200 180 184 192 202 188 183 199 196 216 186 186 188 205 191 183 192 211 226 206 140 199 222 224 224 229 250 266 221
195 189 195 197 202 201 207 208 201 203 203 208 207 189 196 187 189 207 202 186 196 194 201 209 178 190 205 208 186 184 199 225 212 172 190 212 226 235 238 231 239 242
201 197 196 199 200 204 203 215 209 203 200 217 231 199 181 192 181 198 212 210 197 202 181 211 186 185 199 213 183 174 191 215 246 191 185 204 216 222 221 225 235 227
202 204 201 202 204 203 204 206 215 206 191 208 226 236 191 183 180 188 202 205 213 213 211 194 212 186 182 201 212 197 193 212 222 239 225 207 212 227 247 228 230 239
206 207 206 203 206 209 206 206 207 213 204 199 212 223 234 192 183 190 198 201 220 219 221 203 207 199 174 200 211 209 202 204 211 219 226 223 199 212 216 223 236 217
209 209 211 208 204 213 214 207 206 207 207 208 212 218 216 212 198 198 200 211 212 223 224 216 200 211 190 194 223 228 223 205 207 209 219 222 228 227 229 220 222 246
228 211 210 214 208 204 220 216 211 213 197 197 201 209 220 216 210 205 207 215 210 215 226 224 205 203 208 213 213 227 228 201 213 228 221 223 218 218 213 206 216 234
228 243 226 208 213 201 210 226 220 218 214 194 192 208 216 219 218 214 205 212 213 212 218 223 214 208 215 215 216 210 229 216 208 211 212 210 196 212 207 210 221 205
255 248 257 242 215 219 213 218 234 228 223 210 207 201 202 213 219 213 209 216 222 215 211 224 229 220 206 214 214 213 215 228 219 215 195 188 182 205 199 195 228 219
231 239 253 251 247 233 212 212 223 238 236 219 214 206 200 192 224 231 205 209 224 232 221 219 221 222 200 201 212 225 228 226 225 68 167 212 191 169 200 206 183 176
209 227 226 246 261 255 228 200 207 230 257 242 201 215 210 184 199 235 237 191 191 227 236 237 226 248 180 188 194 209 223 215 191 203 206 205 208 198 189 211 178 168
209 221 213 215 233 267 243 210 205 215 236 248 241 213 180 181 196 221 243 240 209 199 220 232 255 218 196 189 189 183 185 198 210 204 208 220 207 209 216 185 123 130
194 219 224 215 217 234 290 241 205 210 226 239 234 219 217 178 195 208 220 234 237 215 202 209 217 228 199 184 179 183 187 194 216 208 209 209 205 201 200 149 158 211
202 201 219 209 199 202 208 247 263 207 211 230 234 222 221 207 197 207 207 225 238 248 242 220 212 176 186 188 189 190 194 196 212 224 235 240 219 190 181 172 183 189
199 204 204 205 193 187 185 188 191 159 134 100 9 312 247 208 203 204 208 216 222 230 243 246 222 169 181 186 187 192 190 198 210 216 231 245 249 221 208 183 185 186
199 204 205 200 184 180 179 177 175 184 200 168 166 183 295 273 217 206 207 214 218 219 229 236 240 188 182 189 186 187 179 199 206 211 221 229 244 249 236 219 104 89
212 209 211 211 198 187 187 179 164 170 181 178 187 184 193 241 263 228 208 215 217 224 221 228 236 198 200 193 189 182 187 192 203 210 220 224 228 236 74 70 82 93
208 213 220 220 213 195 191 188 177 171 180 184 177 190 204 217 258 265 229 212 217 219 228 230 235 157 193 192 198 196 196 202 194 206 223 230 221 94 78 82 56 22
205 204 210 220 220 196 173 161 162 167 168 184 196 199 201 209 219 252 271 245 211 216 227 231 157 108 156 185 185 196 221 257 241 214 236 218 101 122 124 94 65 37